Wind_Speed
11 12 12 12 13 13 13 12 12 11 11 12 12 11 11 10 9 8 8 7 7 8 8 9 11 12 13 14 16 17 18 19 20 21 21 21 21 21 21 21 20 20 19 18
11 13 13 13 13 13 12 12 12 12 12 13 13 12 11 11 10 9 9 8 8 8 9 9 10 12 13 14 15 16 17 18 19 20 21 21 21 20 20 20 20 19 18 17
13 14 14 13 13 14 13 12 12 12 12 13 13 13 12 12 11 10 10 9 9 9 9 10 11 12 13 14 15 16 17 18 18 19 20 20 20 20 20 20 20 19 18 17
14 14 15 13 14 14 13 13 13 13 13 14 14 14 13 13 12 11 11 11 10 10 10 10 11 12 13 14 15 16 17 17 18 19 19 19 19 19 19 19 19 19 18 18
16 16 14 13 14 15 14 13 14 14 14 14 15 15 14 14 13 13 12 12 12 12 12 12 12 13 13 14 15 16 17 17 18 18 19 19 19 18 18 18 18 18 18 17
17 16 15 13 15 15 15 14 15 15 15 15 16 16 16 15 15 14 14 14 13 13 13 13 13 13 14 15 16 17 17 18 18 18 19 19 18 18 18 18 18 18 17 17
18 17 15 14 15 16 16 15 16 16 16 16 17 17 17 17 16 16 16 15 15 15 15 14 14 15 15 16 17 17 18 18 18 19 19 19 19 19 18 19 18 18 18 17
20 19 17 16 17 17 17 17 17 18 18 18 18 18 18 18 18 17 17 17 16 16 16 16 16 16 16 17 17 18 18 18 19 19 19 19 19 19 19 19 19 18 18 18
21 20 19 19 20 20 20 20 20 20 20 20 20 20 20 20 19 19 19 18 18 18 18 18 18 18 18 18 18 19 19 19 20 20 20 20 20 20 20 20 19 19 19 18
23 21 22 22 22 22 23 23 22 22 22 22 22 22 22 22 21 21 21 20 20 20 20 20 20 19 20 20 20 20 20 20 21 21 21 21 21 21 21 21 20 21 21 20
26 25 25 25 25 25 25 25 25 24 24 24 24 24 24 24 24 23 23 22 22 22 22 22 22 21 21 22 22 22 22 22 22 22 22 22 22 22 22 22 22 22 22 22
29 29 30 28 28 29 28 27 27 27 26 25 25 25 25 25 25 25 25 24 24 24 24 24 23 23 23 23 23 23 23 23 23 23 23 23 24 24 24 24 24 24 24 24
34 33 34 32 31 31 31 30 30 29 29 28 28 28 28 27 27 27 27 27 26 26 26 26 26 26 26 25 25 25 25 25 25 25 25 25 25 26 26 26 26 26 26 26
38 37 36 35 35 34 34 34 33 32 31 31 31 31 31 30 30 29 29 29 29 28 28 28 28 28 28 27 27 27 27 26 26 27 27 27 27 28 28 28 28 28 28 28
41 41 39 38 38 37 37 37 36 35 34 34 33 33 33 33 32 32 32 31 31 31 30 30 30 30 30 29 29 29 29 29 29 29 29 29 30 30 30 30 30 30 30 30
44 44 43 41 40 39 39 39 38 37 37 36 36 36 35 35 35 35 35 34 33 33 33 32 32 32 32 32 31 31 31 31 31 31 31 31 31 32 31 31 31 31 31 31
45 45 45 44 43 42 42 41 41 40 39 39 38 38 38 38 38 38 38 37 37 36 35 35 35 34 34 34 34 33 33 34 33 33 33 33 33 33 33 33 33 32 33 33
47 47 47 47 46 45 44 43 43 42 42 42 41 40 40 40 40 40 39 39 39 38 38 37 37 37 36 36 36 36 36 36 36 35 35 35 35 35 35 35 35 34 35 34
47 47 48 48 47 47 46 45 45 44 44 44 43 43 43 42 42 42 41 41 41 40 40 39 39 39 38 38 38 38 38 38 38 37 37 37 37 37 37 37 37 37 36 36
46 47 47 47 47 47 47 47 47 46 46 45 45 45 45 45 45 44 44 44 43 43 42 42 41 41 41 41 41 41 40 40 39 39 39 39 39 39 39 38 38 38 38 38
46 46 46 47 47 48 48 48 48 47 47 47 47 46 46 46 46 46 45 45 45 45 44 44 44 44 44 44 43 43 43 42 42 42 41 41 41 40 40 40 40 40 40 40
44 45 46 47 47 47 48 48 48 48 48 48 48 48 47 47 47 46 46 46 46 46 46 46 46 46 46 46 45 45 44 44 44 43 42 42 42 42 41 41 41 41 41 41
43 43 44 45 46 46 46 47 48 48 48 48 48 48 48 48 47 47 48 47 47 47 48 48 48 48 47 47 47 46 46 45 45 44 44 44 44 43 43 43 43 43 43 43
42 42 43 43 44 45 45 46 47 48 48 48 49 49 49 48 48 48 48 48 48 48 48 48 48 48 48 48 47 47 46 46 46 45 45 45 45 44 44 44 44 44 44 44
41 42 42 43 43 44 44 44 45 46 47 47 48 48 48 48 48 48 48 48 48 48 48 48 47 47 47 47 47 46 46 46 46 45 45 45 45 45 44 45 45 44 44 44
40 41 42 42 42 42 43 43 43 44 44 44 45 45 45 45 46 46 46 46 46 46 46 46 46 46 46 46 45 45 45 45 44 44 44 45 45 45 45 45 45 44 45 45
40 40 40 40 40 41 41 42 42 42 42 43 43 44 44 44 44 44 44 44 44 44 44 45 45 45 44 44 44 44 44 44 43 43 43 44 44 44 44 43 44 44 44 45
Wind_Direction
243 249 252 253 254 255 256 256 254 244 239 234 233 234 237 241 245 253 264 280 295 309 320 328 333 338 343 347 351 354 356 358 0 2 3 5 6 8 10 12 13 13 13 14
252 252 253 254 256 258 256 255 252 244 238 236 233 236 238 240 245 253 262 275 289 301 311 320 327 333 338 342 346 349 351 354 356 358 359 1 2 5 7 9 11 10 10 11
257 257 256 255 257 257 257 254 251 245 237 235 234 236 238 241 246 253 261 272 284 294 303 312 320 326 332 337 340 343 346 349 351 353 355 357 359 1 3 5 7 9 10 10
261 260 260 260 257 257 256 255 253 249 242 238 237 238 240 243 248 254 262 271 281 288 296 305 312 319 325 330 334 338 341 344 346 348 351 353 355 357 359 1 3 4 5 6
264 264 265 260 259 258 256 254 253 249 244 241 241 242 243 245 249 255 262 270 278 285 292 299 306 312 318 324 328 332 336 339 341 343 346 349 350 352 354 355 357 358 358 360
265 266 265 261 259 257 257 256 252 251 249 245 245 245 246 249 252 256 261 268 275 281 287 293 300 306 312 317 322 326 330 333 337 338 340 342 344 345 347 348 350 352 351 352
264 265 265 262 258 256 256 254 253 254 254 251 248 248 249 251 254 257 261 267 273 278 283 288 294 300 306 312 316 321 324 327 331 333 334 335 337 338 339 341 343 345 346 345
262 262 262 258 257 255 254 253 254 254 254 253 251 251 251 253 256 259 263 267 272 276 280 285 290 295 301 307 311 315 319 321 324 326 329 330 330 332 333 335 336 338 339 339
261 261 259 258 256 255 254 254 254 254 255 253 252 252 253 255 258 261 264 267 271 274 278 282 287 291 297 302 307 310 313 316 318 320 323 324 325 326 327 329 331 332 332 331
260 258 257 257 256 255 254 254 253 254 254 254 254 254 254 256 258 261 264 267 270 273 277 280 284 288 292 297 301 305 308 310 313 315 317 319 320 322 323 324 325 326 326 325
259 257 255 254 255 256 255 255 255 254 254 254 255 256 256 257 259 261 264 267 269 272 275 278 281 285 289 293 297 301 303 306 308 310 313 314 315 317 319 320 320 321 321 320
258 256 255 253 254 255 256 256 256 256 255 255 256 256 256 257 259 261 263 266 268 271 273 276 279 282 286 290 294 297 299 300 302 305 307 309 310 311 313 314 315 315 315 315
257 256 256 256 255 255 256 256 256 256 256 255 255 256 256 257 258 261 263 265 268 270 272 275 278 281 284 287 290 292 294 296 298 300 303 305 307 307 309 310 311 311 311 311
258 258 257 257 256 256 256 256 255 255 256 256 256 256 257 258 259 260 262 264 267 269 272 274 277 279 282 284 287 289 291 293 295 297 299 301 303 304 305 306 308 308 308 308
257 258 258 257 257 257 257 257 256 256 256 256 256 257 258 258 259 260 262 264 266 269 271 274 276 278 280 282 284 287 289 291 293 294 296 298 300 301 302 303 304 304 305 305
256 257 258 258 258 258 258 257 257 257 257 257 257 257 258 259 260 261 262 263 265 268 270 272 275 277 279 281 282 284 286 288 290 292 294 295 297 299 300 300 301 301 302 302
256 256 257 258 258 258 258 258 258 257 257 257 257 257 258 259 260 261 263 264 265 267 269 271 273 275 277 278 280 282 284 286 288 290 291 293 294 296 297 298 298 299 299 300
257 256 256 256 257 258 258 258 259 258 258 257 258 258 259 259 260 261 263 264 265 266 268 270 271 273 275 277 279 281 283 285 287 288 289 291 292 294 295 296 296 297 297 297
258 257 257 256 255 256 256 257 258 258 258 258 258 258 259 259 260 261 262 264 265 266 268 269 270 272 274 276 278 280 282 283 285 286 287 289 290 291 293 294 294 295 295 296
258 257 256 256 255 255 255 255 256 257 257 257 258 258 258 259 260 261 262 263 264 265 267 268 269 271 272 274 276 278 280 281 283 284 286 287 288 290 291 292 293 294 295 295
258 257 256 255 254 254 254 254 255 255 256 257 257 258 258 259 260 260 261 262 263 264 265 267 268 270 272 274 275 277 278 280 281 283 284 285 287 288 290 291 292 293 294 294
258 257 256 255 254 253 253 253 254 255 255 256 256 257 258 259 259 260 261 262 263 265 266 267 268 270 271 272 274 276 277 279 280 281 283 284 286 287 288 290 291 292 293 293
258 258 257 256 255 254 253 253 252 253 254 255 256 257 257 258 258 259 260 262 263 265 266 267 268 269 270 271 272 274 276 277 279 280 282 283 285 286 287 289 290 291 292 293
257 257 257 256 255 253 253 253 253 253 254 255 255 256 256 257 258 259 260 261 262 263 265 266 267 268 270 272 273 274 274 276 277 279 280 282 283 285 286 288 290 291 292 293
258 258 257 256 256 255 255 255 255 255 255 255 255 256 257 257 258 259 260 261 262 263 264 265 267 268 270 271 272 273 274 276 277 278 279 281 282 283 285 287 289 290 291 292
258 258 257 257 257 256 255 254 254 254 255 255 256 256 257 257 258 258 260 261 262 263 264 266 267 268 269 270 272 273 274 275 277 278 279 281 282 283 285 286 288 290 292 293
260 259 259 258 257 257 257 256 255 255 255 255 256 256 257 258 258 259 260 261 262 263 265 266 267 267 268 269 270 272 273 275 276 278 279 280 281 283 284 286 288 290 292 293
Height
5821 5821 5822 5823 5823 5823 5824 5825 5825 5826 5827 5828 5828 5829 5830 5830 5831 5831 5831 5831 5831 5830 5828 5827 5825 5824 5821 5819 5816 5813 5810 5807 5803 5799 5795 5791 5787 5783 5779 5775 5771 5767 5764 5760
5819 5819 5819 5820 5821 5821 5821 5822 5822 5823 5824 5824 5825 5826 5827 5828 5828 5829 5829 5829 5828 5827 5826 5825 5824 5822 5820 5818 5815 5812 5809 5806 5803 5799 5795 5791 5787 5784 5780 5776 5772 5768 5765 5761
5816 5816 5816 5818 5818 5818 5818 5819 5819 5820 5822 5821 5822 5823 5824 5825 5825 5826 5826 5826 5826 5825 5824 5823 5822 5820 5818 5816 5813 5811 5808 5805 5802 5798 5795 5791 5787 5784 5780 5776 5773 5769 5766 5762
5813 5814 5814 5817 5815 5815 5815 5816 5816 5817 5818 5818 5819 5820 5821 5822 5822 5823 5823 5823 5823 5822 5821 5820 5819 5818 5816 5814 5812 5809 5806 5803 5800 5797 5794 5790 5787 5783 5780 5776 5773 5769 5766 5763
5809 5809 5810 5812 5811 5811 5812 5813 5813 5813 5814 5815 5816 5817 5818 5818 5819 5820 5820 5820 5819 5819 5818 5817 5816 5815 5813 5811 5809 5807 5804 5801 5798 5795 5792 5789 5786 5782 5779 5776 5772 5769 5766 5763
5805 5805 5806 5809 5807 5807 5809 5809 5809 5809 5810 5811 5812 5814 5815 5815 5815 5816 5816 5816 5816 5815 5815 5814 5813 5811 5810 5808 5806 5804 5801 5799 5796 5793 5790 5787 5784 5781 5778 5775 5772 5768 5765 5762
5801 5801 5802 5804 5803 5804 5806 5806 5806 5806 5806 5807 5808 5810 5810 5810 5811 5811 5812 5812 5812 5811 5811 5810 5809 5808 5806 5805 5803 5801 5798 5796 5793 5790 5787 5784 5781 5779 5776 5773 5770 5767 5764 5761
5796 5797 5800 5799 5798 5800 5800 5800 5800 5801 5802 5803 5804 5804 5805 5806 5806 5807 5807 5807 5807 5807 5806 5805 5804 5803 5802 5801 5799 5797 5794 5792 5790 5787 5784 5781 5779 5776 5773 5770 5767 5764 5762 5759
5792 5794 5793 5793 5793 5794 5794 5795 5795 5796 5797 5798 5798 5799 5800 5801 5801 5802 5802 5802 5802 5802 5801 5800 5800 5799 5797 5796 5794 5792 5790 5788 5786 5783 5780 5778 5775 5772 5770 5767 5764 5761 5759 5756
5785 5786 5786 5786 5787 5787 5788 5789 5789 5790 5791 5792 5793 5793 5794 5795 5796 5796 5796 5796 5796 5796 5795 5795 5794 5793 5792 5791 5789 5787 5785 5783 5781 5778 5776 5773 5771 5768 5766 5763 5760 5758 5755 5752
5777 5779 5779 5779 5780 5780 5781 5782 5783 5784 5784 5785 5786 5787 5788 5788 5789 5789 5790 5790 5790 5790 5789 5789 5788 5787 5786 5785 5783 5782 5780 5778 5776 5773 5771 5769 5766 5764 5761 5759 5756 5754 5751 5748
5769 5770 5770 5772 5772 5773 5774 5775 5775 5776 5777 5778 5779 5780 5780 5781 5782 5782 5783 5783 5783 5782 5782 5782 5781 5781 5780 5778 5777 5776 5774 5772 5770 5768 5766 5763 5761 5758 5756 5753 5751 5748 5746 5743
5759 5760 5760 5762 5764 5764 5765 5766 5767 5768 5769 5770 5771 5771 5772 5773 5774 5774 5775 5775 5775 5775 5775 5774 5774 5773 5772 5771 5770 5769 5767 5765 5764 5761 5759 5757 5754 5752 5749 5747 5744 5742 5739 5736
5747 5748 5750 5752 5754 5755 5755 5757 5758 5759 5760 5761 5762 5762 5763 5764 5765 5766 5766 5766 5767 5767 5767 5766 5766 5765 5764 5763 5762 5761 5760 5758 5756 5754 5752 5750 5748 5745 5742 5740 5737 5734 5732 5729
5736 5736 5738 5740 5742 5744 5745 5746 5747 5749 5750 5751 5752 5753 5754 5755 5755 5756 5757 5757 5757 5758 5758 5757 5757 5756 5756 5755 5754 5753 5751 5750 5748 5746 5745 5742 5740 5738 5735 5733 5730 5727 5724 5721
5723 5724 5725 5728 5730 5732 5733 5734 5736 5738 5739 5740 5741 5742 5743 5744 5745 5746 5746 5747 5748 5748 5748 5748 5747 5747 5746 5746 5745 5744 5742 5741 5740 5738 5736 5734 5732 5729 5727 5724 5722 5719 5716 5714
5710 5711 5713 5714 5717 5718 5720 5722 5724 5725 5727 5728 5729 5730 5732 5733 5734 5735 5735 5736 5737 5737 5737 5737 5737 5737 5736 5736 5735 5734 5733 5731 5730 5728 5727 5725 5723 5720 5718 5715 5713 5710 5708 5705
5694 5697 5698 5700 5702 5704 5706 5708 5710 5712 5714 5715 5717 5718 5720 5721 5722 5723 5724 5724 5725 5726 5726 5726 5726 5726 5725 5725 5724 5723 5722 5721 5720 5718 5716 5715 5713 5710 5708 5706 5703 5700 5698 5695
5679 5681 5683 5685 5688 5690 5692 5694 5696 5698 5700 5701 5703 5705 5707 5708 5709 5710 5711 5712 5713 5714 5714 5714 5714 5714 5714 5714 5713 5712 5711 5710 5709 5707 5706 5704 5702 5700 5697 5695 5692 5690 5687 5684
5663 5665 5667 5670 5672 5675 5677 5679 5681 5683 5685 5687 5689 5691 5693 5694 5695 5697 5698 5699 5700 5701 5702 5702 5702 5702 5702 5702 5701 5700 5699 5698 5697 5695 5694 5692 5690 5688 5686 5684 5681 5678 5676 5673
5647 5649 5651 5654 5656 5659 5661 5664 5666 5669 5671 5673 5675 5676 5678 5680 5681 5683 5684 5685 5686 5687 5688 5689 5689 5689 5689 5689 5688 5688 5687 5686 5685 5683 5682 5680 5678 5676 5674 5672 5669 5667 5664 5661
5632 5634 5636 5639 5641 5643 5646 5648 5651 5653 5655 5657 5659 5661 5663 5665 5667 5668 5670 5671 5672 5673 5674 5674 5675 5675 5675 5675 5675 5674 5674 5673 5671 5670 5669 5667 5665 5663 5661 5659 5657 5654 5651 5649
5618 5620 5621 5623 5626 5628 5631 5633 5635 5638 5640 5642 5644 5646 5648 5650 5652 5654 5655 5656 5657 5658 5659 5660 5660 5660 5661 5660 5660 5660 5660 5659 5658 5657 5655 5654 5652 5650 5648 5646 5644 5641 5638 5636
5603 5605 5607 5609 5611 5613 5615 5618 5620 5622 5625 5627 5629 5631 5633 5635 5636 5638 5639 5641 5642 5643 5644 5644 5645 5645 5646 5646 5646 5645 5645 5644 5644 5643 5641 5640 5639 5637 5635 5633 5631 5628 5625 5622
5589 5591 5593 5595 5597 5599 5601 5603 5605 5608 5610 5612 5614 5616 5618 5619 5621 5623 5624 5626 5627 5628 5629 5629 5630 5631 5631 5631 5631 5631 5631 5630 5629 5629 5627 5626 5625 5623 5621 5619 5617 5614 5612 5609
5576 5578 5580 5581 5583 5585 5587 5589 5591 5593 5595 5597 5599 5601 5603 5604 5606 5608 5609 5611 5612 5613 5614 5615 5616 5616 5616 5617 5617 5617 5616 5616 5615 5615 5614 5612 5611 5609 5608 5606 5603 5601 5598 5595
5563 5564 5566 5568 5570 5572 5573 5575 5577 5579 5581 5583 5585 5587 5589 5590 5592 5594 5595 5596 5597 5599 5600 5600 5601 5602 5602 5602 5603 5603 5602 5602 5601 5601 5600 5599 5597 5596 5594 5592 5590 5587 5584 5581